Weather History for KLMT - October, 2013

Change the Weather History Date:

Friday, October 18, 2013

  Actual Average Record
Temperature  
Mean Temperature 47 °F 46 °F  
Max Temperature 68 °F 62 °F 78 °F (1988)
Min Temperature 25 °F 31 °F 20 °F (2001)
Degree Days  
Heating Degree Days 18 19  
Month to date heating degree days 375 280  
Since 1 July heating degree days 699 636  
Cooling Degree Days 0 0  
Month to date cooling degree days 0 0  
Year to date cooling degree days 285 169  
Moisture  
Dew Point 29 °F    
Average Humidity 60    
Maximum Humidity 92    
Minimum Humidity 20    
Precipitation  
Precipitation 0.00 in 0.03 in 0.66 in (1953)
Month to date precipitation 0.01 0.35  
Year to date precipitation 4.91 10.62  
Sea Level Pressure  
Sea Level Pressure 30.20 in    
Wind  
Wind Speed 2 mph (North)    
Max Wind Speed 10 mph    
Max Gust Speed 15 mph    
Visibility 10 miles    
Events      
T = Trace of Precipitation, MM = Missing Value Source: NWS Daily Summary

Daily Weather History Graph

Daily Weather History Graph

Search for Another Location

Airport or City:

Trip Planner

Search our weather history database for the weather conditions in past years. The results will help you decide how hot, cold, wet, or windy it might be!

Date:

Astronomy

Oct. 18, 2013 Rise Set
Actual Time 7:23 AM PDT 6:19 PM PDT
Civil Twilight 6:55 AM PDT 6:48 PM PDT
Nautical Twilight 6:22 AM PDT 7:20 PM PDT
Astronomical Twilight 5:50 AM PDT 7:53 PM PDT
Moon 6:12 PM PDT (10/18) 7:04 AM PDT (10/18)
Length of Visible Light 11h 53m
Length of Day
10h 56m
Full, 100% of the Moon is Illuminated
Oct 18
Full
Oct 18
Full
Oct 26
Last Quarter
Nov 3
New
Nov 9
First Quarter

Hourly Weather History & Observations

Time (PDT) Temp. Windchill Dew Point Humidity Pressure Visibility Wind Dir Wind Speed Gust Speed Precip Events Conditions
12:53 AM 37.0 °F - 32.0 °F 82% 30.19 in 10.0 mi Calm Calm - N/A   Clear
1:53 AM 33.1 °F - 30.9 °F 92% 30.19 in 10.0 mi Calm Calm - N/A   Clear
2:53 AM 30.9 °F 26.2 °F 28.0 °F 89% 30.21 in 10.0 mi NE 4.6 mph - N/A   Clear
3:53 AM 32.0 °F 27.5 °F 27.0 °F 82% 30.20 in 10.0 mi North 4.6 mph - N/A   Clear
4:53 AM 32.0 °F - 27.0 °F 82% 30.19 in 10.0 mi Calm Calm - N/A   Clear
5:53 AM 28.0 °F 24.2 °F 25.0 °F 88% 30.22 in 10.0 mi East 3.5 mph - N/A   Clear
6:53 AM 28.9 °F - 24.1 °F 82% 30.24 in 10.0 mi Calm Calm - N/A   Clear
7:53 AM 28.9 °F 25.2 °F 26.1 °F 89% 30.26 in 10.0 mi East 3.5 mph - N/A   Clear
8:53 AM 39.0 °F - 30.9 °F 73% 30.27 in 10.0 mi Calm Calm - N/A   Clear
9:53 AM 48.0 °F - 34.0 °F 58% 30.24 in 10.0 mi NNW 6.9 mph - N/A   Clear
10:53 AM 52.0 °F - 33.1 °F 49% 30.22 in 10.0 mi NNW 5.8 mph - N/A   Clear
11:53 AM 55.0 °F - 30.9 °F 40% 30.21 in 10.0 mi Calm Calm - N/A   Clear
12:53 PM 60.1 °F - 28.9 °F 31% 30.19 in 10.0 mi Calm Calm - N/A   Clear
1:53 PM 63.0 °F - 28.9 °F 28% 30.17 in 10.0 mi Calm Calm - N/A   Clear
2:53 PM 66.0 °F - 28.0 °F 24% 30.15 in 10.0 mi Variable 3.5 mph - N/A   Clear
3:53 PM 66.9 °F - 27.0 °F 22% 30.13 in 10.0 mi Calm Calm - N/A   Clear
4:53 PM 66.0 °F - 25.0 °F 21% 30.13 in 10.0 mi Calm Calm - N/A   Clear
5:53 PM 60.1 °F - 30.0 °F 32% 30.15 in 10.0 mi NNW 6.9 mph - N/A   Clear
6:53 PM 48.0 °F - 28.0 °F 46% 30.18 in 10.0 mi NNW 5.8 mph - N/A   Clear
7:53 PM 43.0 °F - 28.0 °F 56% 30.21 in 10.0 mi Calm Calm - N/A   Clear
8:53 PM 41.0 °F - 28.9 °F 62% 30.19 in 10.0 mi Calm Calm - N/A   Clear
9:53 PM 36.0 °F - 27.0 °F 70% 30.20 in 10.0 mi Calm Calm - N/A   Clear
10:53 PM 39.9 °F 37.8 °F 28.9 °F 65% 30.18 in 10.0 mi North 3.5 mph - N/A   Clear
11:53 PM 34.0 °F - 28.9 °F 82% 30.19 in 10.0 mi Calm Calm - N/A   Clear